Location: Mahannah Oil Field
(37.4664°N, 96.6003°W)
Time: 01:22:27
(UTC+00:00)

deb Explorer IX - Pass Details

Date: 29 January 2021
Orbit: 537 x 1102 km, 38.8° (Epoch: 25 February)

Event Time Altitude Azimuth Distance (km) Brightness Sun altitude
Rises 04:38:00 0° 276° (W) 3,331 - -57.0°
Reaches altitude 10° 04:41:48 10° 253° (WSW) 2,258 - -57.6°
Maximum altitude 04:44:28 14° 222° (SW) 1,895 - -58.1°
Drops below altitude 10° 04:46:58 10° 190° (S) 2,071 - -58.5°
Sets 04:50:12 0° 165° (SSE) 2,871 - -59.1°
